Location: Church Tower
(37.7144°N, 119.6316°W)
Time: 19:34:49
(UTC+00:00)

Cosmos 1782 Rocket - Pass Details

Date: 15 November 2025
Orbit: 599 x 626 km, 82.5° (Epoch: 08 December)

Event Time Altitude Azimuth Distance (km) Brightness Sun altitude
Exits shadow 12:19:05 51° 117° (ESE) 767 4.2 -27.7°
Drops below altitude 10° 12:22:40 10° 160° (SSE) 1,942 6.3 -27.0°
Sets 12:24:54 0° 165° (SSE) 2,838 7.2 -26.5°
